Regional Weather Roundup
Issued by NWS Green Bay, WI

Home | Current Version | Previous Version | Text Only | Print | Product List | Glossary On
Versions: 1 2 3 4 5 6 7 8 9 10 11 12 13 14 15 16 17 18 19 20 21 22 23 24 25 26 27 28 29 30 31 32 33 34 35 36 37 38 39 40 41 42 43 44 45 46 47 48 49 50
131
ASUS43 KGRB 250111
RWRGRB

NORTH-CENTRAL AND NORTHEAST WISCONSIN REGIONAL WEATHER ROUNDUP
NATIONAL WEATHER SERVICE GREEN BAY WI
800 PM CDT SUN JUL 24 2016

WIZ005-009-010>012-018-019-250200-
NORTH CENTRAL WISCONSIN

CITY           SKY/WX    TMP DP  RH WIND       PRES   REMARKS
IRONWOOD       PTCLDY    75  61  60 W8        29.84S
MANITOWISH WTR PTCLDY    73  62  68 W6        29.89R
ARBOR VITAE    PTCLDY    77  65  65 W8        29.89R
EAGLE RIVER    CLEAR     74  59  59 W7        29.88R
LAND O LAKES   CLEAR     75  60  60 W7        29.89R
RHINELANDER    CLEAR     75  63  66 W7        29.89R
PHILLIPS       CLEAR     73  64  72 W3        29.90R
ANTIGO         CLEAR     75  64  68 W9        29.88S
TOMAHAWK       PTCLDY    74  62  67 W6        29.90R
MERRILL        PTCLDY    77  65  67 NW8       29.88S
$$

WIZ013-073-250200-
NORTHEAST WISCONSIN

CITY           SKY/WX    TMP DP  RH WIND       PRES   REMARKS
IRON MOUNTAIN  CLEAR     80  63  55 W5        29.81R
MARINETTE      PTCLDY    82  69  64 VRB3        N/A
OCONTO         PTCLDY    81  70  70 W7        29.80S
$$

WIZ017-030-035>037-045-250200-
CENTRAL WISCONSIN

CITY           SKY/WX    TMP DP  RH WIND       PRES   REMARKS
MEDFORD        CLEAR     73  63  70 NW6       29.90S
WAUSAU         CLEAR     78  63  59 W13       29.86S
MOSINEE        CLEAR     77  64  65 W10       29.89S
MARSHFIELD     CLEAR     77  63  61 NW9       29.89S
WISC RAPIDS    CLEAR     78  63  59 NW8       29.88F
STEVENS POINT  PTCLDY    77  63  61 W6        29.88S
WAUPACA        CLEAR     83  65  54 W9        29.85S
SHAWANO        MOCLDY    82  66  58 W7        29.84S
CLINTONVILLE   PTCLDY    81  64  57 W6        29.84S
WAUTOMA        PTCLDY    81  68  64 W8        29.86F
$$

WIZ038-039-048-051-250200-
FOX VALLEY

CITY           SKY/WX    TMP DP  RH WIND       PRES   REMARKS
NWS GREEN BAY  PTCLDY    79  69  71 W8        29.82R
APPLETON       PTCLDY    79  64  61 W6        29.84S
OSHKOSH        PTCLDY    81  67  62 W8        29.85R
FOND DU LAC    PTCLDY    82  68  62 W7        29.86R
$$

WIZ022-050-052-250200-
EAST CENTRAL WISCONSIN

CITY           SKY/WX    TMP DP  RH WIND       PRES   REMARKS
EPHRAIM        FAIR      78  74  88 W3        29.78S
WASHINGTON ISL NOT AVBL
STURGEON BAY   PTCLDY    81  72  74 W10       29.81R
MANITOWOC      CLOUDY    83  70  64 W12       29.82R
SHEBOYGAN      PTCLDY    83  74  74 NW6       29.83R
$$

LMZ563-521-522-541>543-250200-
LAKESHORE

STATION/POSITION TIME  TEMP    WIND        PRES    VSBY  WAVE
                       AIR SEA DIR/SP/G                  HT/PER
                 (UTC) (F)     (DEG/KT/KT) (MB)    (MI)  (FT/S)
SHEBOYGAN LKSHOR 0100   85     290/  8/ 10 1009.9R
KEWAUNEE LKSHORE 0000   81                   N/A
NORTHPORT PIER   0000   80     170/  3/  6 1008.1R
N MID LAKE BUOY  0050   69 68  210/ 12/ 14 1007.5R         4/ 7
S GREEN BAY BUOY 0000   79 75  250/  8/ 10   N/A
CHAMBERS ISLAND  0000   81     180/  3/  6 1008.1R
MENOMINEE LKSHOR 0000   85                   N/A
$$




USA.gov is the U.S. government's official web portal to all federal, state and local government web resources and services.